Weather History for KRIC - July, 2013

Change the Weather History Date:

Sunday, July 14, 2013

  Actual Average Record
Temperature  
Mean Temperature 82 °F 80 °F  
Max Temperature 90 °F 90 °F 103 °F (1954)
Min Temperature 73 °F 69 °F 54 °F (1940)
Degree Days  
Heating Degree Days 0 0  
Month to date heating degree days 0 0  
Since 1 June heating degree days 0 7  
Since 1 July heating degree days 0 0  
Cooling Degree Days 17 15  
Month to date cooling degree days 217 201  
Year to date cooling degree days 788 677  
Since 1 June cooling degree days 575 516  
Growing Degree Days 32 (Base 50)    
Moisture  
Dew Point 72 °F    
Average Humidity 76    
Maximum Humidity 100    
Minimum Humidity 52    
Precipitation  
Precipitation 0.00 in 0.15 in 1.96 in (1917)
Month to date precipitation 3.55 1.94  
Year to date precipitation 28.93 22.76  
Snow  
Snow 0.00 in 0.00 in 0.00 in (2002)
Month to date snowfall 0.0 0.0  
Since 1 July snowfall 0.0 0.0  
Snow Depth 0.00 in    
Sea Level Pressure  
Sea Level Pressure 30.31 in    
Wind  
Wind Speed 5 mph (SE)    
Max Wind Speed 10 mph    
Max Gust Speed 14 mph    
Visibility 8 miles    
Events Fog    
T = Trace of Precipitation, MM = Missing Value Source: NWS Daily Summary

Daily Weather History Graph

Daily Weather History Graph

Search for Another Location

Airport or City:

Trip Planner

Search our weather history database for the weather conditions in past years. The results will help you decide how hot, cold, wet, or windy it might be!

Date:

Astronomy

Jul. 14, 2013 Rise Set
Actual Time 5:59 AM EDT 8:30 PM EDT
Civil Twilight 5:29 AM EDT 9:00 PM EDT
Nautical Twilight 4:51 AM EDT 9:38 PM EDT
Astronomical Twilight 4:09 AM EDT 10:19 PM EDT
Moon 12:05 PM EDT (7/14) 11:50 PM EDT (7/14)
Length of Visible Light 15h 31m
Length of Day
14h 30m
Waxing Crescent, 35% of the Moon is Illuminated
Jul 14
Waxing Crescent
Jul 15
First Quarter
Jul 22
Full
Jul 29
Last Quarter
Aug 6
New

Hourly Weather History & Observations

Time (EDT) Temp. Heat Index Dew Point Humidity Pressure Visibility Wind Dir Wind Speed Gust Speed Precip Events Conditions
12:54 AM 73.9 °F - 72.0 °F 93% 30.27 in 10.0 mi ESE 4.6 mph - 0.01 in   Partly Cloudy
1:54 AM 73.9 °F - 72.0 °F 93% 30.27 in 10.0 mi ESE 4.6 mph - N/A   Partly Cloudy
2:54 AM 73.9 °F - 72.0 °F 93% 30.28 in 9.0 mi Calm Calm - N/A   Partly Cloudy
3:54 AM 75.0 °F - 73.0 °F 94% 30.29 in 8.0 mi East 5.8 mph - N/A   Partly Cloudy
4:54 AM 75.0 °F - 73.0 °F 94% 30.30 in 9.0 mi East 5.8 mph - N/A   Partly Cloudy
5:54 AM 75.0 °F - 73.0 °F 94% 30.31 in 7.0 mi East 3.5 mph - N/A   Scattered Clouds
6:01 AM 75.2 °F - 73.4 °F 94% 30.30 in 6.0 mi East 4.6 mph - N/A   Scattered Clouds
6:19 AM 75.2 °F - 73.4 °F 94% 30.30 in 0.5 mi ESE 3.5 mph - N/A Fog Fog
6:54 AM 75.0 °F - 73.9 °F 96% 30.31 in 0.5 mi ESE 4.6 mph - N/A Fog Fog
7:54 AM 75.9 °F - 75.0 °F 97% 30.32 in 0.5 mi SE 5.8 mph - N/A Fog Fog
8:09 AM 77.0 °F - 75.2 °F 94% 30.32 in 7.0 mi ESE 6.9 mph - N/A   Overcast
8:37 AM 78.8 °F - 75.2 °F 89% 30.33 in 10.0 mi ESE 6.9 mph - N/A   Mostly Cloudy
8:54 AM 80.1 °F 85.4 °F 75.9 °F 87% 30.34 in 10.0 mi ESE 6.9 mph - N/A   Mostly Cloudy
9:21 AM 82.4 °F 88.2 °F 73.4 °F 74% 30.33 in 10.0 mi South 6.9 mph - N/A   Mostly Cloudy
9:54 AM 82.9 °F 87.5 °F 71.1 °F 67% 30.34 in 10.0 mi SSE 9.2 mph - N/A   Mostly Cloudy
10:54 AM 84.9 °F 90.1 °F 71.1 °F 63% 30.35 in 10.0 mi South 5.8 mph - N/A   Overcast
11:54 AM 86.0 °F 91.5 °F 71.1 °F 61% 30.34 in 10.0 mi SE 6.9 mph - N/A   Overcast
12:54 PM 88.0 °F 92.9 °F 70.0 °F 55% 30.34 in 10.0 mi South 5.8 mph - N/A   Overcast
1:54 PM 88.0 °F 91.4 °F 68.0 °F 51% 30.32 in 10.0 mi SSW 9.2 mph - N/A   Overcast
2:54 PM 89.1 °F 93.7 °F 69.1 °F 52% 30.31 in 10.0 mi SSW 4.6 mph - N/A   Overcast
3:54 PM 88.0 °F 92.9 °F 70.0 °F 55% 30.30 in 10.0 mi Calm Calm - N/A   Overcast
4:54 PM 88.0 °F 93.8 °F 71.1 °F 57% 30.29 in 10.0 mi ESE 6.9 mph - N/A   Overcast
5:54 PM 87.1 °F 93.6 °F 72.0 °F 61% 30.28 in 10.0 mi East 4.6 mph - N/A   Overcast
6:54 PM 86.0 °F 92.2 °F 72.0 °F 63% 30.29 in 10.0 mi ESE 6.9 mph - N/A   Overcast
7:54 PM 82.9 °F 88.8 °F 73.0 °F 72% 30.30 in 10.0 mi ESE 6.9 mph - N/A   Mostly Cloudy
8:54 PM 80.1 °F 83.6 °F 71.1 °F 74% 30.31 in 10.0 mi SE 6.9 mph - N/A   Mostly Cloudy
9:54 PM 77.0 °F - 72.0 °F 84% 30.32 in 10.0 mi ESE 5.8 mph - N/A   Mostly Cloudy
10:54 PM 75.9 °F - 71.1 °F 85% 30.32 in 10.0 mi ESE 4.6 mph - N/A   Mostly Cloudy
11:54 PM 75.9 °F - 71.1 °F 85% 30.32 in 10.0 mi Calm Calm - N/A   Mostly Cloudy